Year,Month,Day,Hour,Minute,Value (Times are PST for windgust in km/hr)
2015,11,17,00,00,30.60
2015,11,17,00,01,30.60
2015,11,17,00,02,32.20
2015,11,17,00,03,32.20
2015,11,17,00,04,27.40
2015,11,17,00,05,30.60
2015,11,17,00,06,30.60
2015,11,17,00,07,32.20
2015,11,17,00,08,30.60
2015,11,17,00,09,29.00
2015,11,17,00,10,30.60
2015,11,17,00,11,30.60
2015,11,17,00,12,29.00
2015,11,17,00,13,27.40
2015,11,17,00,14,29.00
2015,11,17,00,15,27.40
2015,11,17,00,16,27.40
2015,11,17,00,17,29.00
2015,11,17,00,18,27.40
2015,11,17,00,19,25.70
2015,11,17,00,20,25.70
2015,11,17,00,21,24.20
2015,11,17,00,22,25.70
2015,11,17,00,23,27.40
2015,11,17,00,24,27.40
2015,11,17,00,25,29.00
2015,11,17,00,26,27.40
2015,11,17,00,27,25.70
2015,11,17,00,28,29.00
2015,11,17,00,29,29.00
2015,11,17,00,30,27.40
2015,11,17,00,31,27.40
2015,11,17,00,32,30.60
2015,11,17,00,33,25.70
2015,11,17,00,34,25.70
2015,11,17,00,35,27.40
2015,11,17,00,36,25.70
2015,11,17,00,37,27.40
2015,11,17,00,38,25.70
2015,11,17,00,39,29.00
2015,11,17,00,40,29.00
2015,11,17,00,41,30.60
2015,11,17,00,42,30.60
2015,11,17,00,43,24.20
2015,11,17,00,44,22.50
2015,11,17,00,45,25.70
2015,11,17,00,46,24.20
2015,11,17,00,47,25.70
2015,11,17,00,48,25.70
2015,11,17,00,49,27.40
2015,11,17,00,50,29.00
2015,11,17,00,51,29.00
2015,11,17,00,52,29.00
2015,11,17,00,53,27.40
2015,11,17,00,54,27.40
2015,11,17,00,55,25.70
2015,11,17,00,56,27.40
2015,11,17,00,57,29.00
2015,11,17,00,58,29.00
2015,11,17,00,59,29.00
2015,11,17,01,00,30.60
2015,11,17,01,01,30.60
2015,11,17,01,02,29.00
2015,11,17,01,03,30.60
2015,11,17,01,04,27.40
2015,11,17,01,05,29.00
2015,11,17,01,06,25.70
2015,11,17,01,07,24.20
2015,11,17,01,08,24.20
2015,11,17,01,09,20.90
2015,11,17,01,10,27.40
2015,11,17,01,11,27.40
2015,11,17,01,12,25.70
2015,11,17,01,13,27.40
2015,11,17,01,14,24.20
2015,11,17,01,15,20.90
2015,11,17,01,16,20.90
2015,11,17,01,17,19.30
2015,11,17,01,18,19.30
2015,11,17,01,19,19.30
2015,11,17,01,20,20.90
2015,11,17,01,21,20.90
2015,11,17,01,22,20.90
2015,11,17,01,23,17.70
2015,11,17,01,24,22.50
2015,11,17,01,25,20.90
2015,11,17,01,26,19.30
2015,11,17,01,27,19.30
2015,11,17,01,28,20.90
2015,11,17,01,29,19.30
2015,11,17,01,30,19.30
2015,11,17,01,31,22.50
2015,11,17,01,32,22.50
2015,11,17,01,33,20.90
2015,11,17,01,34,19.30
2015,11,17,01,35,17.70
2015,11,17,01,36,17.70
2015,11,17,01,37,17.70
2015,11,17,01,38,17.70
2015,11,17,01,39,17.70
2015,11,17,01,40,17.70
2015,11,17,01,41,17.70
2015,11,17,01,42,19.30
2015,11,17,01,43,19.30
2015,11,17,01,44,17.70
2015,11,17,01,45,17.70
2015,11,17,01,46,17.70
2015,11,17,01,47,19.30
2015,11,17,01,48,19.30
2015,11,17,01,49,17.70
2015,11,17,01,50,17.70
2015,11,17,01,51,17.70
2015,11,17,01,52,17.70
2015,11,17,01,53,19.30
2015,11,17,01,54,20.90
2015,11,17,01,55,19.30
2015,11,17,01,56,20.90
2015,11,17,01,57,19.30
2015,11,17,01,58,19.30
2015,11,17,01,59,19.30
2015,11,17,02,00,19.30
2015,11,17,02,01,20.90
2015,11,17,02,02,20.90
2015,11,17,02,03,22.50
2015,11,17,02,04,24.20
2015,11,17,02,05,24.20
2015,11,17,02,06,24.20
2015,11,17,02,07,22.50
2015,11,17,02,08,24.20
2015,11,17,02,09,24.20
2015,11,17,02,10,24.20
2015,11,17,02,11,25.70
2015,11,17,02,12,25.70
2015,11,17,02,13,27.40
2015,11,17,02,14,27.40
2015,11,17,02,15,27.40
2015,11,17,02,16,25.70
2015,11,17,02,17,24.20
2015,11,17,02,18,22.50
2015,11,17,02,19,24.20
2015,11,17,02,20,25.70
2015,11,17,02,21,25.70
2015,11,17,02,22,27.40
2015,11,17,02,23,27.40
2015,11,17,02,24,27.40
2015,11,17,02,25,29.00
2015,11,17,02,26,27.40
2015,11,17,02,27,25.70
2015,11,17,02,28,27.40
2015,11,17,02,29,27.40
2015,11,17,02,30,30.60
2015,11,17,02,31,37.00
2015,11,17,02,32,33.80
2015,11,17,02,33,35.40
2015,11,17,02,34,35.40
2015,11,17,02,35,37.00
2015,11,17,02,36,40.20
2015,11,17,02,37,40.20
2015,11,17,02,38,37.00
2015,11,17,02,39,37.00
2015,11,17,02,40,37.00
2015,11,17,02,41,38.60
2015,11,17,02,42,37.00
2015,11,17,02,43,40.20
2015,11,17,02,44,38.60
2015,11,17,02,45,40.20
2015,11,17,02,46,41.80
2015,11,17,02,47,43.50
2015,11,17,02,48,41.80
2015,11,17,02,49,41.80
2015,11,17,02,50,38.60
2015,11,17,02,51,40.20
2015,11,17,02,52,41.80
2015,11,17,02,53,40.20
2015,11,17,02,54,38.60
2015,11,17,02,55,38.60
2015,11,17,02,56,37.00
2015,11,17,02,57,38.60
2015,11,17,02,58,35.40
2015,11,17,02,59,35.40
2015,11,17,03,00,32.20
2015,11,17,03,01,32.20
2015,11,17,03,02,32.20
2015,11,17,03,03,32.20
2015,11,17,03,04,30.60
2015,11,17,03,05,30.60
2015,11,17,03,06,35.40
2015,11,17,03,07,33.80
2015,11,17,03,08,32.20
2015,11,17,03,09,33.80
2015,11,17,03,10,38.60
2015,11,17,03,11,37.00
2015,11,17,03,12,37.00
2015,11,17,03,13,33.80
2015,11,17,03,14,32.20
2015,11,17,03,15,35.40
2015,11,17,03,16,32.20
2015,11,17,03,17,33.80
2015,11,17,03,18,37.00
2015,11,17,03,19,35.40
2015,11,17,03,20,37.00
2015,11,17,03,21,37.00
2015,11,17,03,22,37.00
2015,11,17,03,23,33.80
2015,11,17,03,24,40.20
2015,11,17,03,25,38.60
2015,11,17,03,26,33.80
2015,11,17,03,27,35.40
2015,11,17,03,28,38.60
2015,11,17,03,29,41.80
2015,11,17,03,30,40.20
2015,11,17,03,31,45.10
2015,11,17,03,32,45.10
2015,11,17,03,33,43.50
2015,11,17,03,34,43.50
2015,11,17,03,35,41.80
2015,11,17,03,36,41.80
2015,11,17,03,37,40.20
2015,11,17,03,38,41.80
2015,11,17,03,39,43.50
2015,11,17,03,40,43.50
2015,11,17,03,41,43.50
2015,11,17,03,42,40.20
2015,11,17,03,43,41.80
2015,11,17,03,44,40.20
2015,11,17,03,45,40.20
2015,11,17,03,46,40.20
2015,11,17,03,47,38.60
2015,11,17,03,48,37.00
2015,11,17,03,49,37.00
2015,11,17,03,50,41.80
2015,11,17,03,51,41.80
2015,11,17,03,52,41.80
2015,11,17,03,53,40.20
2015,11,17,03,54,43.50
2015,11,17,03,55,45.10
2015,11,17,03,56,45.10
2015,11,17,03,57,45.10
2015,11,17,03,58,45.10
2015,11,17,03,59,43.50
2015,11,17,04,00,41.80
2015,11,17,04,01,41.80
2015,11,17,04,02,40.20
2015,11,17,04,03,38.60
2015,11,17,04,04,41.80
2015,11,17,04,05,38.60
2015,11,17,04,06,33.80
2015,11,17,04,07,38.60
2015,11,17,04,08,38.60
2015,11,17,04,09,40.20
2015,11,17,04,10,38.60
2015,11,17,04,11,38.60
2015,11,17,04,12,32.20
2015,11,17,04,13,32.20
2015,11,17,04,14,30.60
2015,11,17,04,15,33.80
2015,11,17,04,16,37.00
2015,11,17,04,17,32.20
2015,11,17,04,18,27.40
2015,11,17,04,19,30.60
2015,11,17,04,20,32.20
2015,11,17,04,21,32.20
2015,11,17,04,22,30.60
2015,11,17,04,23,29.00
2015,11,17,04,24,30.60
2015,11,17,04,25,24.20
2015,11,17,04,26,29.00
2015,11,17,04,27,27.40
2015,11,17,04,28,32.20
2015,11,17,04,29,29.00
2015,11,17,04,30,30.60
2015,11,17,04,31,25.70
2015,11,17,04,32,30.60
2015,11,17,04,33,35.40
2015,11,17,04,34,32.20
2015,11,17,04,35,37.00
2015,11,17,04,36,38.60
2015,11,17,04,37,38.60
2015,11,17,04,38,40.20
2015,11,17,04,39,40.20
2015,11,17,04,40,35.40
2015,11,17,04,41,37.00
2015,11,17,04,42,35.40
2015,11,17,04,43,35.40
2015,11,17,04,44,37.00
2015,11,17,04,45,35.40
2015,11,17,04,46,35.40
2015,11,17,04,47,37.00
2015,11,17,04,48,35.40
2015,11,17,04,49,35.40
2015,11,17,04,50,37.00
2015,11,17,04,51,37.00
2015,11,17,04,52,37.00
2015,11,17,04,53,35.40
2015,11,17,04,54,37.00
2015,11,17,04,55,38.60
2015,11,17,04,56,33.80
2015,11,17,04,57,33.80
2015,11,17,04,58,35.40
2015,11,17,04,59,37.00
2015,11,17,05,00,37.00
2015,11,17,05,01,35.40
2015,11,17,05,02,35.40
2015,11,17,05,03,33.80
2015,11,17,05,04,37.00
2015,11,17,05,05,32.20
2015,11,17,05,06,37.00
2015,11,17,05,07,30.60
2015,11,17,05,08,32.20
2015,11,17,05,09,29.00
2015,11,17,05,10,30.60
2015,11,17,05,11,35.40
2015,11,17,05,12,30.60
2015,11,17,05,13,29.00
2015,11,17,05,14,29.00
2015,11,17,05,15,33.80
2015,11,17,05,16,30.60
2015,11,17,05,17,32.20
2015,11,17,05,18,32.20
2015,11,17,05,19,30.60
2015,11,17,05,20,30.60
2015,11,17,05,21,33.80
2015,11,17,05,22,32.20
2015,11,17,05,23,29.00
2015,11,17,05,24,32.20
2015,11,17,05,25,30.60
2015,11,17,05,26,29.00
2015,11,17,05,27,30.60
2015,11,17,05,28,33.80
2015,11,17,05,29,29.00
2015,11,17,05,30,32.20
2015,11,17,05,31,29.00
2015,11,17,05,32,32.20
2015,11,17,05,33,33.80
2015,11,17,05,34,32.20
2015,11,17,05,35,32.20
2015,11,17,05,36,33.80
2015,11,17,05,37,33.80
2015,11,17,05,38,30.60
2015,11,17,05,39,32.20
2015,11,17,05,40,32.20
2015,11,17,05,41,37.00
2015,11,17,05,42,33.80
2015,11,17,05,43,29.00
2015,11,17,05,44,33.80
2015,11,17,05,45,29.00
2015,11,17,05,46,38.60
2015,11,17,05,47,37.00
2015,11,17,05,48,38.60
2015,11,17,05,49,37.00
2015,11,17,05,50,41.80
2015,11,17,05,51,45.10
2015,11,17,05,52,48.30
2015,11,17,05,53,43.50
2015,11,17,05,54,40.20
2015,11,17,05,55,37.00
2015,11,17,05,56,38.60
2015,11,17,05,57,37.00
2015,11,17,05,58,32.20
2015,11,17,05,59,40.20
2015,11,17,06,00,33.80
2015,11,17,06,01,41.80
2015,11,17,06,02,40.20
2015,11,17,06,03,33.80
2015,11,17,06,04,37.00
2015,11,17,06,05,37.00
2015,11,17,06,06,38.60
2015,11,17,06,07,51.50
2015,11,17,06,08,57.90
2015,11,17,06,09,56.30
2015,11,17,06,10,32.20
2015,11,17,06,11,32.20
2015,11,17,06,12,37.00
2015,11,17,06,13,33.80
2015,11,17,06,14,32.20
2015,11,17,06,15,32.20
2015,11,17,06,16,35.40
2015,11,17,06,17,54.70
2015,11,17,06,18,61.20
2015,11,17,06,19,59.50
2015,11,17,06,20,54.70
2015,11,17,06,21,57.90
2015,11,17,06,22,59.50
2015,11,17,06,23,57.90
2015,11,17,06,24,61.20
2015,11,17,06,25,57.90
2015,11,17,06,26,53.10
2015,11,17,06,27,53.10
2015,11,17,06,28,48.30
2015,11,17,06,29,41.80
2015,11,17,06,30,33.80
2015,11,17,06,31,33.80
2015,11,17,06,32,33.80
2015,11,17,06,33,35.40
2015,11,17,06,34,38.60
2015,11,17,06,35,41.80
2015,11,17,06,36,48.30
2015,11,17,06,37,61.20
2015,11,17,06,38,57.90
2015,11,17,06,39,59.50
2015,11,17,06,40,51.50
2015,11,17,06,41,62.70
2015,11,17,06,42,59.50
2015,11,17,06,43,64.40
2015,11,17,06,44,69.20
2015,11,17,06,45,64.40
2015,11,17,06,46,64.40
2015,11,17,06,47,64.40
2015,11,17,06,48,57.90
2015,11,17,06,49,64.40
2015,11,17,06,50,72.40
2015,11,17,06,51,74.00
2015,11,17,06,52,74.00
2015,11,17,06,53,74.00
2015,11,17,06,54,72.40
2015,11,17,06,55,72.40
2015,11,17,06,56,61.20
2015,11,17,06,57,62.70
2015,11,17,06,58,67.60
2015,11,17,06,59,69.20
2015,11,17,07,00,66.00
2015,11,17,07,01,69.20
2015,11,17,07,02,67.60
2015,11,17,07,03,69.20
2015,11,17,07,04,66.00
2015,11,17,07,05,62.70
2015,11,17,07,06,72.40
2015,11,17,07,07,64.40
2015,11,17,07,08,74.00
2015,11,17,07,09,72.40
2015,11,17,07,10,72.40
2015,11,17,07,11,69.20
2015,11,17,07,12,69.20
2015,11,17,07,13,74.00
2015,11,17,07,14,72.40
2015,11,17,07,15,70.80
2015,11,17,07,16,67.60
2015,11,17,07,17,62.70
2015,11,17,07,18,62.70
2015,11,17,07,19,66.00
2015,11,17,07,20,67.60
2015,11,17,07,21,64.40
2015,11,17,07,22,67.60
2015,11,17,07,23,57.90
2015,11,17,07,24,57.90
2015,11,17,07,25,57.90
2015,11,17,07,26,57.90
2015,11,17,07,27,57.90
2015,11,17,07,28,57.90
2015,11,17,07,29,57.90
2015,11,17,07,30,57.90
2015,11,17,07,31,54.70
2015,11,17,07,32,51.50
2015,11,17,07,33,49.90
2015,11,17,07,34,49.90
2015,11,17,07,35,43.50
2015,11,17,07,36,46.70
2015,11,17,07,37,46.70
2015,11,17,07,38,45.10
2015,11,17,07,39,40.20
2015,11,17,07,40,37.00
2015,11,17,07,41,35.40
2015,11,17,07,42,35.40
2015,11,17,07,43,33.80
2015,11,17,07,44,35.40
2015,11,17,07,45,37.00
2015,11,17,07,46,35.40
2015,11,17,07,47,33.80
2015,11,17,07,48,35.40
2015,11,17,07,49,40.20
2015,11,17,07,50,38.60
2015,11,17,07,51,40.20
2015,11,17,07,52,40.20
2015,11,17,07,53,35.40
2015,11,17,07,54,37.00
2015,11,17,07,55,37.00
2015,11,17,07,56,37.00
2015,11,17,07,57,37.00
2015,11,17,07,58,37.00
2015,11,17,07,59,41.80
2015,11,17,08,00,40.20
2015,11,17,08,01,41.80
2015,11,17,08,02,40.20
2015,11,17,08,03,41.80
2015,11,17,08,04,43.50
2015,11,17,08,05,45.10
2015,11,17,08,06,41.80
2015,11,17,08,07,46.70
2015,11,17,08,08,45.10
2015,11,17,08,09,38.60
2015,11,17,08,10,35.40
2015,11,17,08,11,37.00
2015,11,17,08,12,40.20
2015,11,17,08,13,40.20
2015,11,17,08,14,37.00
2015,11,17,08,15,41.80
2015,11,17,08,16,41.80
2015,11,17,08,17,41.80
2015,11,17,08,18,46.70
2015,11,17,08,19,49.90
2015,11,17,08,20,43.50
2015,11,17,08,21,45.10
2015,11,17,08,22,48.30
2015,11,17,08,23,46.70
2015,11,17,08,24,48.30
2015,11,17,08,25,49.90
2015,11,17,08,26,48.30
2015,11,17,08,27,45.10
2015,11,17,08,28,51.50
2015,11,17,08,29,48.30
2015,11,17,08,30,46.70
2015,11,17,08,31,45.10
2015,11,17,08,32,43.50
2015,11,17,08,33,45.10
2015,11,17,08,34,45.10
2015,11,17,08,35,46.70
2015,11,17,08,36,46.70
2015,11,17,08,37,45.10
2015,11,17,08,38,48.30
2015,11,17,08,39,46.70
2015,11,17,08,40,46.70
2015,11,17,08,41,46.70
2015,11,17,08,42,45.10
2015,11,17,08,43,48.30
2015,11,17,08,44,46.70
2015,11,17,08,45,46.70
2015,11,17,08,46,46.70
2015,11,17,08,47,46.70
2015,11,17,08,48,45.10
2015,11,17,08,49,45.10
2015,11,17,08,50,46.70
2015,11,17,08,51,43.50
2015,11,17,08,52,45.10
2015,11,17,08,53,45.10
2015,11,17,08,54,45.10
2015,11,17,08,55,45.10
2015,11,17,08,56,46.70
2015,11,17,08,57,46.70
2015,11,17,08,58,46.70
2015,11,17,08,59,46.70
2015,11,17,09,00,45.10
2015,11,17,09,01,48.30
2015,11,17,09,02,46.70
2015,11,17,09,03,48.30
2015,11,17,09,04,46.70
2015,11,17,09,05,46.70
2015,11,17,09,06,45.10
2015,11,17,09,07,40.20
2015,11,17,09,08,40.20
2015,11,17,09,09,40.20
2015,11,17,09,10,40.20
2015,11,17,09,11,45.10
2015,11,17,09,12,45.10
2015,11,17,09,13,49.90
2015,11,17,09,14,35.40
2015,11,17,09,15,48.30
2015,11,17,09,16,41.80
2015,11,17,09,17,43.50
2015,11,17,09,18,35.40
2015,11,17,09,19,45.10
2015,11,17,09,20,41.80
2015,11,17,09,21,46.70
2015,11,17,09,22,49.90
2015,11,17,09,23,49.90
2015,11,17,09,24,43.50
2015,11,17,09,25,51.50
2015,11,17,09,26,49.90
2015,11,17,09,27,43.50
2015,11,17,09,28,30.60
2015,11,17,09,29,48.30
2015,11,17,09,30,40.20
2015,11,17,09,31,41.80
2015,11,17,09,32,40.20
2015,11,17,09,33,43.50
2015,11,17,09,34,38.60
2015,11,17,09,35,35.40
2015,11,17,09,36,33.80
2015,11,17,09,37,35.40
2015,11,17,09,38,41.80
2015,11,17,09,39,43.50
2015,11,17,09,40,41.80
2015,11,17,09,41,38.60
2015,11,17,09,42,33.80
2015,11,17,09,43,33.80
2015,11,17,09,44,38.60
2015,11,17,09,45,41.80
2015,11,17,09,46,38.60
2015,11,17,09,47,53.10
2015,11,17,09,48,62.70
2015,11,17,09,49,62.70
2015,11,17,09,50,59.50
2015,11,17,09,51,64.40
2015,11,17,09,52,59.50
2015,11,17,09,53,57.90
2015,11,17,09,54,62.70
2015,11,17,09,55,59.50
2015,11,17,09,56,56.30
2015,11,17,09,57,64.40
2015,11,17,09,58,61.20
2015,11,17,09,59,69.20
2015,11,17,10,00,70.80
2015,11,17,10,01,74.00
2015,11,17,10,02,75.60
2015,11,17,10,03,72.40
2015,11,17,10,04,70.80
2015,11,17,10,05,75.60
2015,11,17,10,06,78.80
2015,11,17,10,07,75.60
2015,11,17,10,08,72.40
2015,11,17,10,09,88.50
2015,11,17,10,10,88.50
2015,11,17,10,11,93.30
2015,11,17,10,12,90.10
2015,11,17,10,13,86.90
2015,11,17,10,14,83.70
2015,11,17,10,15,83.70
2015,11,17,10,16,80.50
2015,11,17,10,17,80.50
2015,11,17,10,18,93.30
2015,11,17,10,19,88.50
2015,11,17,10,20,88.50
2015,11,17,10,21,95.00
2015,11,17,10,22,88.50
2015,11,17,10,23,91.70
2015,11,17,10,24,91.70
2015,11,17,10,25,86.90
2015,11,17,10,26,85.30
2015,11,17,10,27,86.90
2015,11,17,10,28,93.30
2015,11,17,10,29,95.00
2015,11,17,10,30,90.10
2015,11,17,10,31,93.30
2015,11,17,10,32,93.30
2015,11,17,10,33,90.10
2015,11,17,10,34,91.70
2015,11,17,10,35,95.00
2015,11,17,10,36,90.10
2015,11,17,10,37,96.60
2015,11,17,10,38,93.30
2015,11,17,10,39,93.30
2015,11,17,10,40,95.00
2015,11,17,10,41,96.60
2015,11,17,10,42,93.30
2015,11,17,10,43,96.60
2015,11,17,10,44,93.30
2015,11,17,10,45,96.60
2015,11,17,10,46,91.70
2015,11,17,10,47,99.80
2015,11,17,10,48,95.00
2015,11,17,10,49,101.40
2015,11,17,10,50,98.20
2015,11,17,10,51,98.20
2015,11,17,10,52,86.90
2015,11,17,10,53,90.10
2015,11,17,10,54,90.10
2015,11,17,10,55,98.20
2015,11,17,10,56,90.10
2015,11,17,10,57,93.30
2015,11,17,10,58,93.30
2015,11,17,10,59,93.30
2015,11,17,11,00,93.30
2015,11,17,11,01,93.30
2015,11,17,11,02,96.60
2015,11,17,11,03,96.60
2015,11,17,11,04,93.30
2015,11,17,11,05,98.20
2015,11,17,11,06,93.30
2015,11,17,11,07,91.70
2015,11,17,11,08,90.10
2015,11,17,11,09,95.00
2015,11,17,11,10,90.10
2015,11,17,11,11,91.70
2015,11,17,11,12,88.50
2015,11,17,11,13,95.00
2015,11,17,11,14,93.30
2015,11,17,11,15,96.60
2015,11,17,11,16,86.90
2015,11,17,11,17,95.00
2015,11,17,11,18,93.30
2015,11,17,11,19,95.00
2015,11,17,11,20,93.30
2015,11,17,11,21,90.10
2015,11,17,11,22,88.50
2015,11,17,11,23,88.50
2015,11,17,11,24,88.50
2015,11,17,11,25,95.00
2015,11,17,11,26,85.30
2015,11,17,11,27,88.50
2015,11,17,11,28,88.50
2015,11,17,11,29,90.10
2015,11,17,11,30,93.30
2015,11,17,11,31,85.30
2015,11,17,11,32,90.10
2015,11,17,11,33,93.30
2015,11,17,11,34,90.10
2015,11,17,11,35,90.10
2015,11,17,11,36,91.70
2015,11,17,11,37,85.30
2015,11,17,11,38,90.10
2015,11,17,11,39,85.30
2015,11,17,11,40,85.30
2015,11,17,11,41,88.50
2015,11,17,11,42,93.30
2015,11,17,11,43,90.10
2015,11,17,11,44,88.50
2015,11,17,11,45,86.90
2015,11,17,11,46,85.30
2015,11,17,11,47,88.50
2015,11,17,11,48,86.90
2015,11,17,11,49,88.50
2015,11,17,11,50,93.30
2015,11,17,11,51,85.30
2015,11,17,11,52,99.80
2015,11,17,11,53,86.90
2015,11,17,11,54,88.50
2015,11,17,11,55,88.50
2015,11,17,11,56,90.10
2015,11,17,11,57,85.30
2015,11,17,11,58,101.40
2015,11,17,11,59,95.00
2015,11,17,12,00,98.20
2015,11,17,12,01,95.00
2015,11,17,12,02,91.70
2015,11,17,12,03,114.30
2015,11,17,12,04,111.10
2015,11,17,12,05,112.60
2015,11,17,12,06,123.90
2015,11,17,12,07,109.40
2015,11,17,12,08,109.40
2015,11,17,12,09,107.80
2015,11,17,12,10,85.30
2015,11,17,12,11,90.10
2015,11,17,12,12,90.10
2015,11,17,12,13,101.40
2015,11,17,12,14,107.80
2015,11,17,12,15,107.80
2015,11,17,12,16,115.90
2015,11,17,12,17,106.20
2015,11,17,12,18,109.40
2015,11,17,12,19,109.40
2015,11,17,12,20,98.20
2015,11,17,12,21,98.20
2015,11,17,12,22,98.20
2015,11,17,12,23,95.00
2015,11,17,12,24,99.80
2015,11,17,12,25,95.00
2015,11,17,12,26,90.10
2015,11,17,12,27,90.10
2015,11,17,12,28,106.20
2015,11,17,12,29,99.80
2015,11,17,12,30,101.40
2015,11,17,12,31,91.70
2015,11,17,12,32,88.50
2015,11,17,12,33,103.00
2015,11,17,12,34,99.80
2015,11,17,12,35,98.20
2015,11,17,12,36,90.10
2015,11,17,12,37,101.40
2015,11,17,12,38,96.60
2015,11,17,12,39,104.60
2015,11,17,12,40,104.60
2015,11,17,12,41,96.60
2015,11,17,12,42,104.60
2015,11,17,12,43,106.20
2015,11,17,12,44,101.40
2015,11,17,12,45,99.80
2015,11,17,12,46,90.10
2015,11,17,12,47,90.10
2015,11,17,12,48,96.60
2015,11,17,12,49,96.60
2015,11,17,12,50,93.30
2015,11,17,12,51,98.20
2015,11,17,12,52,98.20
2015,11,17,12,53,107.80
2015,11,17,12,54,99.80
2015,11,17,12,55,114.30
2015,11,17,12,56,104.60
2015,11,17,12,57,104.60
2015,11,17,12,58,103.00
2015,11,17,12,59,99.80
2015,11,17,13,00,106.20
2015,11,17,13,01,103.00
2015,11,17,13,02,101.40
2015,11,17,13,03,104.60
2015,11,17,13,04,91.70
2015,11,17,13,05,91.70
2015,11,17,13,06,98.20
2015,11,17,13,07,90.10
2015,11,17,13,08,91.70
2015,11,17,13,09,101.40
2015,11,17,13,10,93.30
2015,11,17,13,11,91.70
2015,11,17,13,12,90.10
2015,11,17,13,13,95.00
2015,11,17,13,14,95.00
2015,11,17,13,15,98.20
2015,11,17,13,16,90.10
2015,11,17,13,17,86.90
2015,11,17,13,18,88.50
2015,11,17,13,19,90.10
2015,11,17,13,20,85.30
2015,11,17,13,21,86.90
2015,11,17,13,22,90.10
2015,11,17,13,23,98.20
2015,11,17,13,24,93.30
2015,11,17,13,25,86.90
2015,11,17,13,26,90.10
2015,11,17,13,27,91.70
2015,11,17,13,28,90.10
2015,11,17,13,29,93.30
2015,11,17,13,30,91.70
2015,11,17,13,31,93.30
2015,11,17,13,32,91.70
2015,11,17,13,33,88.50
2015,11,17,13,34,78.80
2015,11,17,13,35,90.10
2015,11,17,13,36,95.00
2015,11,17,13,37,96.60
2015,11,17,13,38,90.10
2015,11,17,13,39,90.10
2015,11,17,13,40,90.10
2015,11,17,13,41,90.10
2015,11,17,13,42,90.10
2015,11,17,13,43,80.50
2015,11,17,13,44,93.30
2015,11,17,13,45,88.50
2015,11,17,13,46,85.30
2015,11,17,13,47,86.90
2015,11,17,13,48,78.80
2015,11,17,13,49,77.30
2015,11,17,13,50,75.60
2015,11,17,13,51,74.00
2015,11,17,13,52,75.60
2015,11,17,13,53,82.10
2015,11,17,13,54,78.80
2015,11,17,13,55,82.10
2015,11,17,13,56,77.30
2015,11,17,13,57,88.50
2015,11,17,13,58,80.50
2015,11,17,13,59,80.50
2015,11,17,14,00,75.60
2015,11,17,14,01,82.10
2015,11,17,14,02,77.30
2015,11,17,14,03,75.60
2015,11,17,14,04,88.50
2015,11,17,14,05,88.50
2015,11,17,14,06,91.70
2015,11,17,14,07,80.50
2015,11,17,14,08,83.70
2015,11,17,14,09,80.50
2015,11,17,14,10,88.50
2015,11,17,14,11,90.10
2015,11,17,14,12,85.30
2015,11,17,14,13,78.80
2015,11,17,14,14,93.30
2015,11,17,14,15,88.50
2015,11,17,14,16,85.30
2015,11,17,14,17,83.70
2015,11,17,14,18,70.80
2015,11,17,14,19,82.10
2015,11,17,14,20,74.00
2015,11,17,14,21,74.00
2015,11,17,14,22,80.50
2015,11,17,14,23,82.10
2015,11,17,14,24,75.60
2015,11,17,14,25,77.30
2015,11,17,14,26,83.70
2015,11,17,14,27,77.30
2015,11,17,14,28,86.90
2015,11,17,14,29,78.80
2015,11,17,14,30,82.10
2015,11,17,14,31,103.00
2015,11,17,14,32,93.30
2015,11,17,14,33,101.40
2015,11,17,14,34,115.90
2015,11,17,14,35,98.20
2015,11,17,14,36,111.10
2015,11,17,14,37,104.60
2015,11,17,14,38,109.40
2015,11,17,14,39,107.80
2015,11,17,14,40,98.20
2015,11,17,14,41,104.60
2015,11,17,14,42,99.80
2015,11,17,14,43,95.00
2015,11,17,14,44,104.60
2015,11,17,14,45,104.60
2015,11,17,14,46,101.40
2015,11,17,14,47,98.20
2015,11,17,14,48,104.60
2015,11,17,14,49,90.10
2015,11,17,14,50,90.10
2015,11,17,14,51,95.00
2015,11,17,14,52,96.60
2015,11,17,14,53,95.00
2015,11,17,14,54,95.00
2015,11,17,14,55,95.00
2015,11,17,14,56,93.30
2015,11,17,14,57,96.60
2015,11,17,14,58,90.10
2015,11,17,14,59,86.90
2015,11,17,15,00,86.90
2015,11,17,15,01,91.70
2015,11,17,15,02,82.10
2015,11,17,15,03,83.70
2015,11,17,15,04,78.80
2015,11,17,15,05,82.10
2015,11,17,15,06,80.50
2015,11,17,15,07,86.90
2015,11,17,15,08,85.30
2015,11,17,15,09,82.10
2015,11,17,15,10,86.90
2015,11,17,15,11,83.70
2015,11,17,15,12,90.10
2015,11,17,15,13,85.30
2015,11,17,15,14,90.10
2015,11,17,15,15,85.30
2015,11,17,15,16,86.90
2015,11,17,15,17,80.50
2015,11,17,15,18,85.30
2015,11,17,15,19,83.70
2015,11,17,15,20,78.80
2015,11,17,15,21,83.70
2015,11,17,15,22,78.80
2015,11,17,15,23,75.60
2015,11,17,15,24,82.10
2015,11,17,15,25,80.50
2015,11,17,15,26,74.00
2015,11,17,15,27,72.40
2015,11,17,15,28,67.60
2015,11,17,15,29,69.20
2015,11,17,15,30,83.70
2015,11,17,15,31,78.80
2015,11,17,15,32,77.30
2015,11,17,15,33,85.30
2015,11,17,15,34,80.50
2015,11,17,15,35,82.10
2015,11,17,15,36,75.60
2015,11,17,15,37,75.60
2015,11,17,15,38,75.60
2015,11,17,15,39,72.40
2015,11,17,15,40,78.80
2015,11,17,15,41,77.30
2015,11,17,15,42,67.60
2015,11,17,15,43,72.40
2015,11,17,15,44,74.00
2015,11,17,15,45,74.00
2015,11,17,15,46,77.30
2015,11,17,15,47,77.30
2015,11,17,15,48,80.50
2015,11,17,15,49,75.60
2015,11,17,15,50,75.60
2015,11,17,15,51,80.50
2015,11,17,15,52,78.80
2015,11,17,15,53,78.80
2015,11,17,15,54,72.40
2015,11,17,15,55,80.50
2015,11,17,15,56,77.30
2015,11,17,15,57,80.50
2015,11,17,15,58,78.80
2015,11,17,15,59,74.00
2015,11,17,16,00,80.50
2015,11,17,16,01,80.50
2015,11,17,16,02,80.50
2015,11,17,16,03,75.60
2015,11,17,16,04,75.60
2015,11,17,16,05,74.00
2015,11,17,16,06,77.30
2015,11,17,16,07,83.70
2015,11,17,16,08,78.80
2015,11,17,16,09,75.60
2015,11,17,16,10,86.90
2015,11,17,16,11,83.70
2015,11,17,16,12,86.90
2015,11,17,16,13,85.30
2015,11,17,16,14,78.80
2015,11,17,16,15,85.30
2015,11,17,16,16,74.00
2015,11,17,16,17,72.40
2015,11,17,16,18,82.10
2015,11,17,16,19,83.70
2015,11,17,16,20,80.50
2015,11,17,16,21,75.60
2015,11,17,16,22,72.40
2015,11,17,16,23,67.60
2015,11,17,16,24,77.30
2015,11,17,16,25,74.00
2015,11,17,16,26,72.40
2015,11,17,16,27,72.40
2015,11,17,16,28,67.60
2015,11,17,16,29,77.30
2015,11,17,16,30,75.60
2015,11,17,16,31,64.40
2015,11,17,16,32,66.00
2015,11,17,16,33,66.00
2015,11,17,16,34,75.60
2015,11,17,16,35,72.40
2015,11,17,16,36,70.80
2015,11,17,16,37,67.60
2015,11,17,16,38,82.10
2015,11,17,16,39,77.30
2015,11,17,16,40,77.30
2015,11,17,16,41,75.60
2015,11,17,16,42,77.30
2015,11,17,16,43,74.00
2015,11,17,16,44,75.60
2015,11,17,16,45,77.30
2015,11,17,16,46,77.30
2015,11,17,16,47,72.40
2015,11,17,16,48,72.40
2015,11,17,16,49,70.80
2015,11,17,16,50,86.90
2015,11,17,16,51,78.80
2015,11,17,16,52,82.10
2015,11,17,16,53,72.40
2015,11,17,16,54,83.70
2015,11,17,16,55,75.60
2015,11,17,16,56,70.80
2015,11,17,16,57,83.70
2015,11,17,16,58,77.30
2015,11,17,16,59,85.30
2015,11,17,17,00,74.00
2015,11,17,17,01,75.60
2015,11,17,17,02,72.40
2015,11,17,17,03,72.40
2015,11,17,17,04,72.40
2015,11,17,17,05,82.10
2015,11,17,17,06,80.50
2015,11,17,17,07,78.80
2015,11,17,17,08,75.60
2015,11,17,17,09,74.00
2015,11,17,17,10,75.60
2015,11,17,17,11,75.60
2015,11,17,17,12,66.00
2015,11,17,17,13,91.70
2015,11,17,17,14,86.90
2015,11,17,17,15,77.30
2015,11,17,17,16,72.40
2015,11,17,17,17,69.20